Location: El Mouella
(16.4949°N, 9.1594°W)
Time: 23:07:57
(UTC+00:00)

STARLINK-60 - Pass Details

Date: 04 October 2020
Orbit: 345 x 354 km, 53.0° (Epoch: 29 October)

Event Time Altitude Azimuth Distance (km) Brightness Sun altitude
Exits shadow 05:31:33 - 342° (NNW) 1,865 6.2 -14.2°
Reaches altitude 10° 05:33:01 10° 353° (N) 1,323 5.5 -13.8°
Maximum altitude 05:35:31 25° 52° (NE) 777 5.0 -13.2°
Drops below altitude 10° 05:38:03 10° 110° (ESE) 1,339 6.9 -12.6°
Sets 05:40:18 0° 124° (SE) 2,192 7.7 -12.1°
